< < Back
Terminal Aerodrome Forecast


Current Version              Previous Versions:   1  2  3  4  5  6  7  8  9  

Terminal Aerodrome Forecast

018
FTUS42 KGSP 280500
TAFGSP
TAF
KGSP 280536Z 2806/2906 22010KT P6SM VCTS BKN160CB
      TEMPO 2806/2808 VRB10G18KT 6SM TSRA OVC040CB
     FM281100 26007KT P6SM SCT150
     FM281600 28012G18KT P6SM FEW060 SCT250
     FM282300 32008KT P6SM FEW250=

Latest METAR

349
SAUS70 KWBC 282000 RRF
MTRGSP
METAR KGSP 281953Z 27010KT 10SM CLR 32/13 A2984 RMK AO2 SLP091
T03220133


USA.gov is the U.S. government's official web portal to all federal, state and local government web resources and services.